Moorhead, MN

5:41 AM CST on December 13, 2017 (GMT -0600)
Moorhead Municipal

Weather History for KJKJ - December, 2012

Change the Weather History Date:

Saturday, December 15, 2012

  Actual Average (KFAR) Record (KFAR)
Temperature  
Mean Temperature 22 °F -  
Max Temperature 30 °F 22 °F 53 °F (1939)
Min Temperature 15 °F 5 °F -29 °F (1901)
Degree Days  
Heating Degree Days 42    
Moisture  
Dew Point 23 °F    
Average Humidity 96    
Maximum Humidity 100    
Minimum Humidity 86    
Precipitation  
Precipitation 0.00 in - - ()
Sea Level Pressure  
Sea Level Pressure 29.67 in    
Wind  
Wind Speed 7 mph (North)    
Max Wind Speed 22 mph    
Max Gust Speed 29 mph    
Visibility 7 miles    
Events      
Averages and records for this station are not official NWS values.
T = Trace of Precipitation, MM = Missing Value Source: NWS Daily Summary

Daily Weather History Graph

Daily Weather History Graph

Search for Another Location

Airport or City:

Trip Planner

Search our weather history database for the weather conditions in past years. The results will help you decide how hot, cold, wet, or windy it might be!

Date:

Astronomy

Dec. 15, 2012 Rise Set
Actual Time 8:05 AM CST 4:38 PM CST
Civil Twilight 7:30 AM CST 5:14 PM CST
Nautical Twilight 6:51 AM CST 5:52 PM CST
Astronomical Twilight 6:14 AM CST 6:29 PM CST
Moon 9:52 AM CST (12/15) 7:52 PM CST (12/15)
Length of Visible Light 9h 43m
Length of Day
8h 33m
Waxing Crescent, 8% of the Moon is Illuminated
Dec 15
Waxing Crescent
Dec 19
First Quarter
Dec 28
Full
Jan 4
Last Quarter
Jan 11
New

Hourly Weather History & Observations

Time (CST) Temp. Windchill Dew Point Humidity Pressure Visibility Wind Dir Wind Speed Gust Speed Precip Events Conditions
12:15 AM 24.8 °F - 23.0 °F 93% 29.71 in 7.0 mi Calm Calm - N/A   Clear
12:35 AM 24.8 °F - 23.0 °F 93% 29.70 in 7.0 mi Calm Calm - N/A   Clear
12:55 AM 23.0 °F - 21.2 °F 93% 29.68 in 7.0 mi Calm Calm - N/A   Clear
1:15 AM 21.2 °F 13.6 °F 21.2 °F 100% 29.69 in 7.0 mi North 5.8 mph - N/A   Clear
1:35 AM 21.2 °F 13.6 °F 21.2 °F 100% 29.69 in 7.0 mi North 5.8 mph - N/A   Clear
1:55 AM 23.0 °F 15.8 °F 21.2 °F 93% 29.69 in 7.0 mi North 5.8 mph - N/A   Clear
2:14 AM 23.0 °F 18.4 °F 21.2 °F 93% 29.70 in 5.0 mi NNW 3.5 mph - N/A   Clear
2:35 AM 23.0 °F 15.8 °F 21.2 °F 93% 29.69 in 5.0 mi North 5.8 mph - N/A   Clear
2:55 AM 23.0 °F 15.8 °F 23.0 °F 100% 29.68 in 7.0 mi North 5.8 mph - N/A   Clear
3:14 AM 23.0 °F 15.8 °F 23.0 °F 100% 29.68 in 7.0 mi North 5.8 mph - N/A   Clear
3:35 AM 24.8 °F 16.9 °F 23.0 °F 93% 29.68 in 7.0 mi NNE 6.9 mph - N/A   Clear
3:55 AM 24.8 °F 17.9 °F 24.8 °F 100% 29.67 in 7.0 mi North 5.8 mph - N/A   Clear
4:14 AM 24.8 °F 19.1 °F 24.8 °F 100% 29.67 in 5.0 mi North 4.6 mph - N/A   Clear
4:35 AM 24.8 °F 20.5 °F 24.8 °F 100% 29.68 in 5.0 mi NNE 3.5 mph - N/A   Clear
4:55 AM 24.8 °F 19.1 °F 24.8 °F 100% 29.67 in 5.0 mi North 4.6 mph - N/A   Clear
5:15 AM 26.6 °F 21.2 °F 26.6 °F 100% 29.68 in 5.0 mi North 4.6 mph - N/A   Clear
5:35 AM 26.6 °F 21.2 °F 26.6 °F 100% 29.67 in 5.0 mi North 4.6 mph - N/A   Clear
6:15 AM 28.4 °F 23.3 °F 28.4 °F 100% 29.67 in 7.0 mi NE 4.6 mph - N/A   Clear
6:35 AM 28.4 °F 22.2 °F 28.4 °F 100% 29.67 in 7.0 mi NE 5.8 mph - N/A   Clear
6:54 AM 28.4 °F 22.2 °F 28.4 °F 100% 29.67 in 7.0 mi NNE 5.8 mph - N/A   Clear
7:15 AM 28.4 °F 24.6 °F 28.4 °F 100% 29.66 in 7.0 mi NE 3.5 mph - N/A   Clear
7:35 AM 28.4 °F 20.4 °F 28.4 °F 100% 29.66 in 5.0 mi North 8.1 mph - N/A   Clear
7:54 AM 28.4 °F 22.2 °F 28.4 °F 100% 29.65 in 7.0 mi North 5.8 mph - N/A   Clear
8:15 AM 28.4 °F 21.2 °F 28.4 °F 100% 29.65 in 5.0 mi North 6.9 mph - N/A   Clear
8:35 AM 28.4 °F 23.3 °F 28.4 °F 100% 29.65 in 5.0 mi North 4.6 mph - N/A   Mostly Cloudy
8:55 AM 28.4 °F 22.2 °F 28.4 °F 100% 29.65 in 5.0 mi North 5.8 mph - N/A   Overcast
9:15 AM 30.2 °F 25.4 °F 28.4 °F 93% 29.65 in 5.0 mi North 4.6 mph - N/A   Overcast
9:34 AM 30.2 °F 22.6 °F 28.4 °F 93% 29.65 in 5.0 mi NNW 8.1 mph - N/A   Mostly Cloudy
9:55 AM 28.4 °F 20.4 °F 28.4 °F 100% 29.65 in 5.0 mi North 8.1 mph - N/A   Scattered Clouds
10:15 AM 28.4 °F 19.7 °F 28.4 °F 100% 29.65 in 5.0 mi North 9.2 mph - N/A   Scattered Clouds
10:35 AM 28.4 °F 19.7 °F 26.6 °F 93% 29.65 in 5.0 mi NNW 9.2 mph - N/A   Scattered Clouds
10:55 AM 28.4 °F 19.7 °F 26.6 °F 93% 29.65 in 5.0 mi NNW 9.2 mph - N/A   Clear
11:15 AM 28.4 °F 19.7 °F 26.6 °F 93% 29.65 in 5.0 mi North 9.2 mph - N/A   Clear
11:35 AM 28.4 °F 19.7 °F 26.6 °F 93% 29.65 in 5.0 mi North 9.2 mph - N/A   Clear
11:55 AM 28.4 °F 19.1 °F 28.4 °F 100% 29.64 in 5.0 mi North 10.4 mph - N/A   Clear
12:15 PM 28.4 °F 18.0 °F 26.6 °F 93% 29.63 in 5.0 mi North 12.7 mph - N/A   Clear
12:35 PM 28.4 °F 18.5 °F 26.6 °F 93% 29.63 in 5.0 mi North 11.5 mph - N/A   Clear
12:55 PM 28.4 °F 16.6 °F 26.6 °F 93% 29.63 in 5.0 mi NNW 16.1 mph - N/A   Clear
1:15 PM 26.6 °F 14.3 °F 26.6 °F 100% 29.63 in 5.0 mi North 16.1 mph - N/A   Clear
1:35 PM 26.6 °F 15.2 °F 26.6 °F 100% 29.62 in 4.0 mi NNW 13.8 mph - N/A   Clear
1:55 PM 26.6 °F 14.7 °F 26.6 °F 100% 29.62 in 4.0 mi North 15.0 mph - N/A   Clear
2:14 PM 28.4 °F 18.5 °F 26.6 °F 93% 29.62 in 4.0 mi North 11.5 mph - N/A   Clear
2:35 PM 28.4 °F 17.5 °F 26.6 °F 93% 29.61 in 4.0 mi North 13.8 mph - N/A   Clear
2:55 PM 28.4 °F 18.0 °F 26.6 °F 93% 29.62 in 5.0 mi North 12.7 mph - N/A   Clear
3:14 PM 28.4 °F 17.5 °F 26.6 °F 93% 29.62 in 5.0 mi North 13.8 mph - N/A   Clear
3:35 PM 26.6 °F 15.7 °F 26.6 °F 100% 29.62 in 5.0 mi North 12.7 mph - N/A   Clear
3:55 PM 26.6 °F 16.2 °F 26.6 °F 100% 29.63 in 5.0 mi North 11.5 mph - N/A   Clear
4:15 PM 26.6 °F 18.2 °F 26.6 °F 100% 29.64 in 5.0 mi North 8.1 mph - N/A   Clear
4:35 PM 26.6 °F 15.7 °F 24.8 °F 93% 29.65 in 5.0 mi NNW 12.7 mph - N/A   Clear
4:55 PM 26.6 °F 15.7 °F 24.8 °F 93% 29.66 in 7.0 mi NNW 12.7 mph - N/A   Clear
5:15 PM 24.8 °F 14.6 °F 24.8 °F 100% 29.66 in 7.0 mi NNW 10.4 mph - N/A   Clear
5:35 PM 24.8 °F 13.4 °F 23.0 °F 93% 29.67 in 10.0 mi NNW 12.7 mph - N/A   Clear
5:55 PM 23.0 °F 11.1 °F 21.2 °F 93% 29.67 in 10.0 mi North 12.7 mph - N/A   Clear
6:15 PM 23.0 °F 10.1 °F 21.2 °F 93% 29.68 in 10.0 mi North 15.0 mph - N/A   Clear
6:35 PM 21.2 °F 7.3 °F 19.4 °F 93% 29.69 in 10.0 mi North 16.1 mph - N/A   Clear
6:55 PM 21.2 °F 9.5 °F 19.4 °F 93% 29.69 in 10.0 mi North 11.5 mph - N/A   Clear
7:15 PM 19.4 °F 7.9 °F 17.6 °F 93% 29.70 in 10.0 mi North 10.4 mph - N/A   Clear
7:35 PM 19.4 °F 7.2 °F 17.6 °F 93% 29.71 in 10.0 mi North 11.5 mph - N/A   Clear
7:55 PM 17.6 °F 5.7 °F 17.6 °F 100% 29.71 in 10.0 mi North 10.4 mph - N/A   Clear
8:15 PM 17.6 °F 7.3 °F 15.8 °F 93% 29.72 in 10.0 mi North 8.1 mph - N/A   Clear
8:35 PM 15.8 °F 5.1 °F 15.8 °F 100% 29.73 in 10.0 mi North 8.1 mph - N/A   Clear
8:55 PM 17.6 °F 5.7 °F 15.8 °F 93% 29.73 in 10.0 mi North 10.4 mph - N/A   Clear
9:15 PM 15.8 °F 4.2 °F 15.8 °F 100% 29.73 in 10.0 mi NNW 9.2 mph - N/A   Clear
9:35 PM 15.8 °F 2.7 °F 15.8 °F 100% 29.73 in 10.0 mi North 11.5 mph - N/A   Clear
9:55 PM 15.8 °F 4.2 °F 14.0 °F 93% 29.73 in 10.0 mi North 9.2 mph - N/A   Clear
10:15 PM 15.8 °F 3.4 °F 14.0 °F 93% 29.73 in 10.0 mi NNW 10.4 mph - N/A   Clear
10:35 PM 15.8 °F 1.4 °F 12.2 °F 86% 29.73 in 10.0 mi NNW 13.8 mph - N/A   Clear
10:55 PM 15.8 °F 0.9 °F 12.2 °F 86% 29.73 in 10.0 mi North 15.0 mph - N/A   Scattered Clouds
11:15 PM 15.8 °F -1.5 °F 14.0 °F 93% 29.74 in 7.0 mi North 20.7 mph 28.8 mph N/A   Overcast
11:35 PM 15.8 °F -1.1 °F 14.0 °F 93% 29.74 in 7.0 mi North 19.6 mph - N/A   Overcast
11:55 PM 15.8 °F -1.9 °F 14.0 °F 93% 29.75 in 7.0 mi North 21.9 mph - N/A   Overcast